• In United Kingdom
  • List of Countries
  • For 7 days
  • Water Temperature
  • Satellite Maps
  • Weather Map
  • Weather Widgets
  • user-avatar
    Login

    Hourly Weather Maceio

    Today, 24 September, Monday

    Time Temperature Precipitation Wind Pressure Humidity
    00:00 +24°C° 0.1 mm 3 mps 761 mmHg 95%
    01:00 +24°C° 0.1 mm 3 mps 760 mmHg 96%
    02:00 +24°C° 0.2 mm 3 mps 760 mmHg 96%
    03:00 +23°C° 0.2 mm 4 mps 760 mmHg 96%
    04:00 +24°C° 0 mm 3 mps 760 mmHg 95%
    05:00 +23°C° 0.2 mm 4 mps 760 mmHg 95%
    06:00 +25°C° 0.2 mm 4 mps 760 mmHg 94%
    07:00 +25°C° 0.2 mm 4 mps 760 mmHg 93%
    08:00 +26°C° 0.2 mm 5 mps 760 mmHg 88%
    09:00 +28°C° 0.2 mm 5 mps 761 mmHg 82%
    10:00 +29°C° 0 mm 5 mps 761 mmHg 74%
    11:00 +29°C° 0.2 mm 5 mps 761 mmHg 74%
    12:00 +29°C° 0.2 mm 5 mps 760 mmHg 73%
    13:00 +29°C° 0.2 mm 4 mps 760 mmHg 72%
    14:00 +30°C° 0 mm 5 mps 760 mmHg 69%
    15:00 +30°C° 0 mm 5 mps 759 mmHg 65%
    16:00 +32°C° 0 mm 5 mps 759 mmHg 62%
    17:00 +29°C° 0 mm 5 mps 759 mmHg 70%
    18:00 +27°C° 0 mm 4 mps 759 mmHg 79%
    19:00 +25°C° 0 mm 4 mps 759 mmHg 87%
    20:00 +25°C° 0 mm 4 mps 760 mmHg 90%
    21:00 +23°C° 0 mm 4 mps 760 mmHg 92%
    22:00 +24°C° 0 mm 3 mps 761 mmHg 95%
    23:00 +24°C° 0 mm 3 mps 761 mmHg 95%

    Tomorrow, 25 September, Tuesday

    Time Temperature Precipitation Wind Pressure Humidity
    00:00 +24°C° 0 mm 3 mps 760 mmHg 95%
    01:00 +24°C° 0 mm 3 mps 760 mmHg 96%
    02:00 +24°C° 0.1 mm 3 mps 760 mmHg 96%
    03:00 +24°C° 0.1 mm 3 mps 759 mmHg 96%
    04:00 +22°C° 0.1 mm 3 mps 759 mmHg 96%
    05:00 +24°C° 0.2 mm 3 mps 759 mmHg 95%
    06:00 +24°C° 0.2 mm 3 mps 760 mmHg 93%
    07:00 +25°C° 0.2 mm 3 mps 760 mmHg 92%
    08:00 +26°C° 0.2 mm 4 mps 760 mmHg 86%
    09:00 +28°C° 0.2 mm 4 mps 761 mmHg 80%
    10:00 +29°C° 0.2 mm 5 mps 761 mmHg 73%
    11:00 +30°C° 0.2 mm 5 mps 761 mmHg 70%
    12:00 +30°C° 0.2 mm 5 mps 760 mmHg 68%
    13:00 +30°C° 0.2 mm 5 mps 760 mmHg 65%
    14:00 +30°C° 0 mm 5 mps 760 mmHg 65%
    15:00 +30°C° 0 mm 5 mps 759 mmHg 64%
    16:00 +30°C° 0 mm 5 mps 759 mmHg 64%
    17:00 +29°C° 0 mm 5 mps 759 mmHg 72%
    18:00 +27°C° 0 mm 5 mps 759 mmHg 80%
    19:00 +25°C° 0 mm 4 mps 759 mmHg 88%
    20:00 +25°C° 0.1 mm 4 mps 760 mmHg 90%
    21:00 +25°C° 0.1 mm 4 mps 760 mmHg 93%
    22:00 +23°C° 0.1 mm 4 mps 761 mmHg 95%
    23:00 +23°C° 0.1 mm 4 mps 760 mmHg 95%

    Day after tomorrow, 26 September, Wednesday

    Time Temperature Precipitation Wind Pressure Humidity
    00:00 +23°C° 0.1 mm 4 mps 760 mmHg 95%
    01:00 +23°C° 0.1 mm 4 mps 760 mmHg 96%
    02:00 +23°C° 0.1 mm 4 mps 760 mmHg 96%
    03:00 +23°C° 0.1 mm 4 mps 759 mmHg 96%
    04:00 +23°C° 0.1 mm 4 mps 759 mmHg 96%
    05:00 +23°C° 0.1 mm 4 mps 759 mmHg 95%
    06:00 +23°C° 0.1 mm 4 mps 760 mmHg 94%
    07:00 +25°C° 0.1 mm 4 mps 760 mmHg 93%
    08:00 +26°C° 0.1 mm 4 mps 760 mmHg 85%
    09:00 +28°C° 0.1 mm 5 mps 761 mmHg 77%
    10:00 +29°C° 0.1 mm 5 mps 761 mmHg 69%
    11:00 +30°C° 0.1 mm 5 mps 761 mmHg 65%
    12:00 +32°C° 0.1 mm 5 mps 760 mmHg 61%
    13:00 +33°C° 0.1 mm 6 mps 760 mmHg 57%
    14:00 +33°C° 0 mm 6 mps 759 mmHg 57%
    15:00 +32°C° 0 mm 6 mps 759 mmHg 57%
    16:00 +32°C° 0 mm 6 mps 758 mmHg 58%
    17:00 +29°C° 0 mm 5 mps 759 mmHg 67%
    18:00 +27°C° 0 mm 5 mps 759 mmHg 76%
    19:00 +25°C° 0 mm 5 mps 759 mmHg 85%
    20:00 +25°C° 0 mm 5 mps 760 mmHg 88%
    21:00 +23°C° 0 mm 5 mps 760 mmHg 91%
    22:00 +23°C° 0 mm 5 mps 761 mmHg 94%
    23:00 +23°C° 0.1 mm 5 mps 760 mmHg 94%

    27 September, Thursday

    Time Temperature Precipitation Wind Pressure Humidity
    00:00 +23°C° 0.1 mm 4 mps 760 mmHg 94%
    01:00 +23°C° 0.1 mm 4 mps 760 mmHg 94%
    02:00 +23°C° 0.1 mm 4 mps 760 mmHg 94%
    03:00 +22°C° 0.1 mm 4 mps 759 mmHg 94%
    04:00 +22°C° 0.1 mm 4 mps 759 mmHg 94%
    05:00 +23°C° 0.1 mm 4 mps 759 mmHg 93%
    06:00 +23°C° 0.1 mm 4 mps 760 mmHg 92%
    07:00 +23°C° 0.1 mm 4 mps 760 mmHg 91%
    08:00 +26°C° 0.1 mm 4 mps 761 mmHg 80%
    09:00 +28°C° 0.1 mm 5 mps 761 mmHg 70%
    10:00 +30°C° 0.1 mm 5 mps 761 mmHg 60%
    11:00 +32°C° 0 mm 5 mps 761 mmHg 57%
    12:00 +33°C° 0 mm 5 mps 760 mmHg 54%
    13:00 +33°C° 0 mm 5 mps 760 mmHg 51%
    14:00 +33°C° 0 mm 5 mps 759 mmHg 54%
    15:00 +33°C° 0 mm 5 mps 759 mmHg 56%
    16:00 +32°C° 0 mm 5 mps 759 mmHg 58%
    17:00 +29°C° 0 mm 5 mps 759 mmHg 66%
    18:00 +28°C° 0 mm 5 mps 759 mmHg 74%
    19:00 +26°C° 0 mm 5 mps 760 mmHg 82%
    20:00 +25°C° 0 mm 5 mps 760 mmHg 86%
    21:00 +25°C° 0 mm 4 mps 761 mmHg 90%
    22:00 +23°C° 0 mm 4 mps 761 mmHg 94%
    23:00 +23°C° 0.1 mm 4 mps 761 mmHg 95%

    28 September, Friday

    Time Temperature Precipitation Wind Pressure Humidity
    00:00 +23°C° 0.1 mm 4 mps 761 mmHg 95%
    01:00 +23°C° 0.1 mm 4 mps 760 mmHg 96%
    02:00 +23°C° 0.1 mm 4 mps 760 mmHg 96%
    03:00 +23°C° 0.1 mm 4 mps 760 mmHg 96%
    04:00 +23°C° 0.1 mm 4 mps 759 mmHg 96%
    05:00 +23°C° 0.1 mm 4 mps 760 mmHg 96%
    06:00 +23°C° 0.1 mm 4 mps 760 mmHg 95%
    07:00 +25°C° 0.1 mm 4 mps 761 mmHg 95%
    08:00 +26°C° 0.3 mm 5 mps 761 mmHg 88%
    09:00 +28°C° 0.3 mm 5 mps 761 mmHg 81%
    10:00 +29°C° 0.3 mm 6 mps 762 mmHg 74%
    11:00 +30°C° 0.2 mm 6 mps 761 mmHg 72%
    12:00 +30°C° 0.2 mm 6 mps 761 mmHg 69%
    13:00 +32°C° 0.2 mm 6 mps 760 mmHg 67%
    14:00 +32°C° 0 mm 6 mps 760 mmHg 67%
    15:00 +30°C° 0 mm 6 mps 759 mmHg 67%
    16:00 +30°C° 0 mm 6 mps 759 mmHg 67%
    17:00 +29°C° 0 mm 5 mps 759 mmHg 74%
    18:00 +27°C° 0 mm 5 mps 760 mmHg 81%
    19:00 +25°C° 0 mm 5 mps 760 mmHg 88%
    20:00 +25°C° 0 mm 5 mps 760 mmHg 91%
    21:00 +25°C° 0 mm 4 mps 760 mmHg 93%
    22:00 +23°C° 0 mm 4 mps 761 mmHg 95%
    23:00 +23°C° 0.1 mm 4 mps 760 mmHg 95%

    29 September, Saturday

    Time Temperature Precipitation Wind Pressure Humidity
    00:00 +23°C° 0.1 mm 4 mps 760 mmHg 96%
    01:00 +23°C° 0.1 mm 4 mps 760 mmHg 96%
    02:00 +23°C° 0.1 mm 4 mps 760 mmHg 95%
    03:00 +22°C° 0.1 mm 4 mps 759 mmHg 95%
    04:00 +22°C° 0.1 mm 4 mps 759 mmHg 95%
    05:00 +23°C° 0.1 mm 4 mps 760 mmHg 94%
    06:00 +23°C° 0.1 mm 4 mps 760 mmHg 94%
    07:00 +23°C° 0.1 mm 4 mps 760 mmHg 93%
    08:00 +26°C° 0.1 mm 5 mps 761 mmHg 85%
    09:00 +28°C° 0.1 mm 5 mps 761 mmHg 76%
    10:00 +30°C° 0.1 mm 6 mps 761 mmHg 68%
    11:00 +32°C° 0.1 mm 6 mps 760 mmHg 63%
    12:00 +33°C° 0.1 mm 6 mps 760 mmHg 58%
    13:00 +33°C° 0.1 mm 6 mps 760 mmHg 53%
    14:00 +33°C° 0 mm 6 mps 759 mmHg 55%
    15:00 +33°C° 0 mm 5 mps 759 mmHg 56%
    16:00 +32°C° 0 mm 5 mps 758 mmHg 57%
    17:00 +29°C° 0 mm 5 mps 759 mmHg 65%
    18:00 +27°C° 0 mm 5 mps 759 mmHg 74%
    19:00 +25°C° 0 mm 4 mps 760 mmHg 82%
    20:00 +25°C° 0 mm 4 mps 760 mmHg 85%
    21:00 +23°C° 0 mm 4 mps 760 mmHg 89%
    22:00 +23°C° 0 mm 5 mps 760 mmHg 93%
    23:00 +23°C° 0.1 mm 5 mps 760 mmHg 93%
    Show more